GFSMA_prec_pwat_210.txt.gz
Precipitable_Water
1.29 1.27 1.29 1.26 1.19 1.11 1.07 1.13 1.16 1.19 1.14 1.23 1.29 1.32 1.32 1.32 1.36 1.46 1.50 1.48 1.47 1.44 1.39 1.48 1.48 1.48 1.50 1.48 1.49 1.55 1.59 1.57 1.49 1.41 1.35 1.32 1.30 1.29 1.28 1.27 1.25 1.24 1.26
1.32 1.33 1.29 1.34 1.24 1.24 1.20 1.19 1.20 1.29 1.25 1.29 1.28 1.30 1.26 1.28 1.28 1.35 1.45 1.46 1.52 1.46 1.55 1.60 1.49 1.50 1.52 1.50 1.43 1.51 1.52 1.50 1.46 1.40 1.34 1.30 1.29 1.25 1.20 1.15 1.08 1.05 1.10
1.41 1.37 1.36 1.32 1.31 1.31 1.34 1.32 1.36 1.37 1.37 1.37 1.29 1.34 1.34 1.28 1.31 1.33 1.41 1.47 1.51 1.48 1.49 1.52 1.51 1.50 1.49 1.50 1.52 1.50 1.50 1.45 1.43 1.41 1.35 1.28 1.16 1.09 1.04 1.03 1.02 1.05 1.01
1.45 1.49 1.40 1.35 1.37 1.36 1.35 1.34 1.39 1.35 1.32 1.33 1.32 1.31 1.33 1.35 1.39 1.43 1.43 1.50 1.53 1.53 1.53 1.54 1.53 1.54 1.52 1.52 1.51 1.51 1.46 1.45 1.42 1.37 1.28 1.19 1.08 1.02 0.99 0.97 0.97 0.99 0.98
1.49 1.54 1.53 1.49 1.47 1.39 1.36 1.31 1.26 1.33 1.29 1.27 1.29 1.35 1.36 1.36 1.41 1.47 1.47 1.50 1.57 1.57 1.56 1.54 1.55 1.51 1.52 1.53 1.53 1.54 1.48 1.43 1.41 1.33 1.26 1.16 1.06 1.01 0.98 0.94 0.94 0.92 0.89
1.58 1.52 1.53 1.53 1.63 1.52 1.42 1.35 1.25 1.30 1.29 1.31 1.31 1.36 1.38 1.43 1.45 1.43 1.45 1.52 1.55 1.57 1.58 1.58 1.55 1.52 1.55 1.55 1.52 1.51 1.44 1.38 1.36 1.29 1.20 1.12 1.06 1.02 0.97 0.97 0.94 0.89 0.81
1.57 1.58 1.57 1.49 1.62 1.61 1.55 1.39 1.36 1.33 1.34 1.42 1.36 1.32 1.34 1.38 1.37 1.36 1.42 1.47 1.51 1.59 1.59 1.57 1.57 1.54 1.55 1.54 1.49 1.45 1.41 1.36 1.31 1.23 1.15 1.17 1.07 1.07 1.02 0.93 0.91 0.89 0.85
1.49 1.59 1.61 1.53 1.50 1.49 1.50 1.46 1.43 1.37 1.45 1.49 1.31 1.27 1.07 1.15 1.25 1.33 1.40 1.44 1.48 1.53 1.52 1.53 1.52 1.51 1.53 1.52 1.48 1.45 1.40 1.36 1.32 1.28 1.24 1.16 1.09 1.05 1.00 0.97 0.96 0.95 0.94
1.49 1.54 1.59 1.58 1.55 1.51 1.43 1.45 1.44 1.40 1.31 1.45 1.45 1.25 1.03 0.97 1.10 1.25 1.31 1.35 1.38 1.38 1.39 1.39 1.42 1.45 1.44 1.47 1.44 1.44 1.37 1.34 1.32 1.27 1.20 1.17 1.11 1.07 1.02 0.95 0.97 0.97 0.97
1.49 1.52 1.56 1.56 1.55 1.59 1.53 1.49 1.53 1.48 1.47 1.31 1.45 1.48 1.39 1.30 1.05 0.99 1.15 1.20 1.26 1.23 1.25 1.31 1.33 1.38 1.39 1.41 1.32 1.48 1.36 1.29 1.29 1.24 1.19 1.11 1.09 1.04 1.03 0.97 0.98 0.99 1.01
1.50 1.51 1.51 1.54 1.53 1.56 1.52 1.54 1.56 1.52 1.51 1.43 1.43 1.37 1.31 1.29 1.30 1.16 0.94 0.99 1.06 1.11 1.13 1.21 1.24 1.30 1.27 1.29 1.26 1.38 1.33 1.30 1.27 1.20 1.15 1.18 1.14 1.09 1.02 0.99 1.02 1.02 1.00
1.45 1.47 1.51 1.55 1.54 1.56 1.58 1.60 1.59 1.54 1.52 1.52 1.48 1.37 1.24 1.17 1.09 1.03 0.94 0.95 0.93 0.98 1.05 1.12 1.12 1.20 1.23 1.27 1.21 1.35 1.25 1.30 1.23 1.18 1.17 1.22 1.14 1.08 1.04 0.99 0.98 0.95 0.93
1.35 1.40 1.48 1.50 1.49 1.58 1.66 1.63 1.57 1.57 1.52 1.47 1.37 1.27 1.22 1.16 1.15 1.09 0.99 0.91 0.84 0.90 0.95 1.03 1.05 1.10 1.19 1.23 1.27 1.28 1.25 1.24 1.17 1.16 1.17 1.15 1.10 1.07 1.00 0.96 0.92 0.86 0.81
1.37 1.46 1.52 1.53 1.55 1.63 1.62 1.59 1.58 1.52 1.44 1.31 1.24 1.22 1.17 1.14 1.13 1.06 0.97 0.89 0.73 0.75 0.80 0.91 1.10 1.08 1.17 1.21 1.20 1.20 1.26 1.22 1.20 1.14 1.10 1.07 1.06 0.99 0.97 0.90 0.85 0.78 0.69
1.45 1.52 1.57 1.52 1.56 1.58 1.55 1.47 1.37 1.21 1.12 1.09 1.09 1.10 1.08 1.09 1.10 1.10 1.06 0.97 0.85 0.69 0.72 0.89 0.95 1.11 1.18 1.14 1.14 1.16 1.14 1.16 1.08 1.10 1.03 1.00 0.97 0.95 0.91 0.85 0.76 0.66 0.58
1.48 1.47 1.45 1.45 1.44 1.41 1.36 1.21 1.01 0.97 0.93 0.91 0.90 0.88 0.92 0.97 0.98 0.97 0.93 0.95 0.96 0.92 0.80 0.88 0.95 1.06 1.04 1.06 1.10 1.07 1.09 1.06 1.02 1.00 0.99 0.99 0.92 0.89 0.85 0.76 0.57 0.48 0.43
1.43 1.40 1.38 1.35 1.24 1.07 0.95 0.89 0.87 0.86 0.85 0.86 0.87 0.84 0.86 0.95 0.95 0.95 0.98 0.98 0.98 0.99 0.87 0.90 0.95 0.95 0.96 1.00 1.00 1.01 1.01 0.96 0.96 0.95 0.97 0.92 0.88 0.84 0.79 0.62 0.49 0.43 0.42
1.27 1.17 1.06 0.96 0.91 0.88 0.88 0.85 0.83 0.83 0.81 0.79 0.80 0.82 0.87 0.94 0.94 0.98 0.98 1.00 1.03 1.03 0.91 0.78 0.85 0.90 0.93 0.94 0.92 0.91 0.92 0.91 0.90 0.86 0.90 0.88 0.84 0.80 0.70 0.55 0.44 0.39 0.37
0.98 0.97 0.95 0.91 0.89 0.90 0.89 0.87 0.85 0.81 0.82 0.84 0.87 0.90 0.91 0.91 0.93 0.95 0.96 0.93 0.90 0.92 0.91 0.83 0.83 0.88 0.84 0.86 0.85 0.85 0.83 0.83 0.80 0.82 0.82 0.80 0.78 0.71 0.64 0.48 0.40 0.38 0.38
0.95 0.96 0.97 0.96 0.94 0.93 0.91 0.90 0.89 0.92 0.95 0.92 0.93 0.90 0.87 0.86 0.86 0.86 0.86 0.85 0.87 0.88 0.87 0.81 0.78 0.78 0.79 0.79 0.75 0.69 0.70 0.71 0.68 0.79 0.77 0.76 0.72 0.65 0.55 0.45 0.40 0.40 0.40
1.01 1.01 0.98 0.95 0.91 0.89 0.90 0.91 0.93 0.90 0.87 0.81 0.76 0.76 0.75 0.76 0.77 0.78 0.78 0.80 0.82 0.79 0.75 0.72 0.70 0.72 0.68 0.67 0.67 0.70 0.65 0.63 0.63 0.70 0.69 0.67 0.62 0.57 0.50 0.46 0.45 0.42 0.35
0.89 0.84 0.86 0.90 0.91 0.89 0.88 0.82 0.76 0.74 0.68 0.66 0.59 0.61 0.60 0.60 0.62 0.65 0.68 0.74 0.74 0.67 0.67 0.67 0.68 0.64 0.68 0.68 0.68 0.65 0.61 0.57 0.54 0.68 0.65 0.59 0.61 0.52 0.51 0.48 0.43 0.36 0.33
0.94 0.93 0.91 0.88 0.85 0.84 0.81 0.75 0.73 0.59 0.56 0.55 0.50 0.46 0.44 0.49 0.51 0.50 0.53 0.58 0.64 0.68 0.68 0.68 0.65 0.67 0.65 0.67 0.69 0.62 0.59 0.62 0.61 0.64 0.62 0.55 0.58 0.49 0.48 0.44 0.39 0.35 0.34
0.95 0.92 0.87 0.83 0.82 0.79 0.72 0.64 0.63 0.62 0.55 0.49 0.45 0.47 0.45 0.43 0.44 0.44 0.46 0.45 0.48 0.52 0.53 0.53 0.53 0.53 0.58 0.63 0.72 0.70 0.67 0.63 0.64 0.63 0.65 0.49 0.49 0.48 0.46 0.43 0.38 0.36 0.36
0.87 0.84 0.82 0.82 0.76 0.74 0.66 0.60 0.53 0.49 0.46 0.44 0.42 0.42 0.41 0.40 0.42 0.45 0.42 0.39 0.38 0.38 0.44 0.47 0.48 0.50 0.52 0.60 0.68 0.63 0.60 0.57 0.53 0.56 0.59 0.47 0.48 0.46 0.41 0.38 0.38 0.39 0.36
0.79 0.80 0.80 0.75 0.61 0.56 0.53 0.47 0.46 0.43 0.36 0.35 0.38 0.38 0.39 0.39 0.42 0.42 0.39 0.36 0.32 0.33 0.37 0.43 0.43 0.47 0.52 0.54 0.65 0.68 0.65 0.56 0.53 0.47 0.49 0.45 0.47 0.42 0.29 0.35 0.36 0.39 0.34

GFSMA_prec_pwat_216.txt.gz
Precipitable_Water
0.92 0.97 0.98 1.01 1.02 1.03 1.02 1.00 1.01 1.02 1.00 1.01 1.09 1.18 1.23 1.28 1.31 1.35 1.37 1.39 1.41 1.43 1.49 1.45 1.41 1.44 1.44 1.42 1.41 1.42 1.39 1.44 1.46 1.45 1.45 1.40 1.36 1.34 1.31 1.27 1.25 1.26 1.27
1.02 1.00 1.01 1.03 1.04 1.02 0.99 0.95 0.95 0.94 0.93 0.99 1.05 1.18 1.22 1.26 1.33 1.34 1.34 1.36 1.39 1.40 1.45 1.50 1.47 1.47 1.48 1.47 1.43 1.43 1.43 1.44 1.45 1.42 1.43 1.36 1.33 1.31 1.30 1.24 1.16 1.10 1.07
1.10 1.10 1.08 1.08 1.09 1.11 1.13 1.10 0.96 0.95 1.00 1.09 1.09 1.18 1.21 1.21 1.23 1.24 1.28 1.30 1.37 1.42 1.47 1.52 1.54 1.53 1.53 1.54 1.49 1.45 1.44 1.48 1.48 1.47 1.41 1.39 1.32 1.29 1.25 1.18 1.10 1.06 1.03
1.11 1.16 1.16 1.15 1.19 1.19 1.20 1.14 1.05 1.03 1.04 1.10 1.09 1.14 1.17 1.19 1.21 1.23 1.27 1.33 1.37 1.42 1.46 1.50 1.52 1.55 1.55 1.56 1.55 1.51 1.44 1.47 1.47 1.45 1.41 1.36 1.33 1.29 1.23 1.16 1.11 1.06 1.05
1.17 1.17 1.21 1.26 1.28 1.26 1.24 1.18 1.15 1.14 1.08 1.07 1.08 1.16 1.25 1.25 1.27 1.31 1.32 1.37 1.41 1.45 1.49 1.49 1.52 1.55 1.56 1.57 1.56 1.54 1.48 1.47 1.46 1.45 1.41 1.36 1.32 1.29 1.24 1.17 1.08 1.05 1.05
1.21 1.21 1.26 1.31 1.35 1.33 1.33 1.31 1.29 1.29 1.22 1.18 1.18 1.21 1.28 1.32 1.35 1.35 1.35 1.41 1.47 1.49 1.48 1.48 1.53 1.58 1.60 1.60 1.60 1.56 1.54 1.52 1.50 1.44 1.40 1.32 1.34 1.30 1.23 1.15 1.06 1.07 1.04
1.32 1.30 1.28 1.35 1.39 1.35 1.35 1.34 1.30 1.29 1.36 1.39 1.27 1.26 1.26 1.33 1.37 1.43 1.46 1.45 1.44 1.44 1.46 1.49 1.52 1.57 1.60 1.58 1.56 1.56 1.52 1.46 1.54 1.45 1.42 1.34 1.28 1.32 1.22 1.18 1.10 1.08 1.05
1.40 1.40 1.35 1.36 1.45 1.41 1.40 1.43 1.38 1.34 1.40 1.42 1.22 1.19 1.02 1.15 1.34 1.44 1.46 1.43 1.45 1.49 1.48 1.51 1.52 1.55 1.57 1.57 1.52 1.46 1.46 1.39 1.47 1.47 1.34 1.37 1.23 1.20 1.30 1.20 1.11 1.02 1.02
1.44 1.45 1.46 1.44 1.46 1.51 1.41 1.42 1.43 1.43 1.31 1.44 1.43 1.23 1.03 0.96 1.14 1.33 1.40 1.46 1.49 1.49 1.50 1.47 1.48 1.48 1.52 1.44 1.39 1.38 1.37 1.37 1.39 1.47 1.40 1.28 1.28 1.25 1.30 1.28 1.10 1.05 1.12
1.51 1.54 1.52 1.54 1.53 1.52 1.50 1.48 1.51 1.45 1.42 1.32 1.45 1.46 1.38 1.26 1.07 1.03 1.31 1.38 1.43 1.42 1.43 1.41 1.37 1.37 1.31 1.30 1.28 1.26 1.29 1.29 1.39 1.42 1.33 1.36 1.31 1.21 1.13 1.19 1.12 1.10 1.21
1.56 1.63 1.62 1.59 1.57 1.56 1.55 1.55 1.53 1.50 1.48 1.42 1.39 1.36 1.38 1.37 1.34 1.25 1.12 1.25 1.38 1.36 1.29 1.29 1.21 1.15 1.15 1.18 1.16 1.23 1.23 1.23 1.30 1.35 1.42 1.33 1.31 1.18 1.11 1.19 1.08 1.12 1.15
1.58 1.70 1.67 1.63 1.65 1.61 1.58 1.61 1.60 1.58 1.55 1.52 1.49 1.47 1.43 1.31 1.26 1.26 1.22 1.26 1.21 1.11 1.14 1.12 1.04 1.04 1.08 1.09 1.08 1.14 1.23 1.26 1.26 1.29 1.33 1.31 1.21 1.13 1.10 1.11 1.17 1.06 1.04
1.52 1.57 1.64 1.63 1.62 1.64 1.62 1.65 1.66 1.66 1.63 1.54 1.53 1.52 1.61 1.49 1.48 1.44 1.35 1.19 1.02 1.02 0.96 1.01 0.98 0.95 0.94 0.98 1.05 1.12 1.17 1.22 1.23 1.24 1.28 1.25 1.24 1.15 1.07 1.07 1.06 1.03 0.98
1.49 1.59 1.61 1.60 1.61 1.63 1.67 1.68 1.65 1.67 1.67 1.62 1.62 1.69 1.64 1.61 1.54 1.48 1.26 1.05 0.88 0.86 0.85 0.82 0.88 0.91 0.98 1.04 1.11 1.14 1.14 1.16 1.21 1.25 1.26 1.24 1.21 1.14 1.09 1.05 0.97 0.94 0.92
1.44 1.50 1.55 1.54 1.60 1.66 1.62 1.61 1.64 1.59 1.64 1.65 1.63 1.72 1.65 1.58 1.50 1.41 1.18 1.03 0.86 0.71 0.73 0.80 0.83 1.00 1.07 1.09 1.09 1.13 1.13 1.14 1.15 1.19 1.21 1.17 1.13 1.08 1.01 0.95 0.94 0.90 0.90
1.51 1.53 1.57 1.59 1.59 1.60 1.61 1.58 1.56 1.56 1.62 1.63 1.64 1.58 1.54 1.48 1.29 1.09 0.99 1.01 1.03 0.85 0.74 0.93 0.96 1.04 1.10 1.09 1.08 1.08 1.05 1.07 1.07 1.09 1.10 1.05 1.01 0.95 0.94 0.92 0.90 0.90 0.83
1.35 1.38 1.44 1.46 1.46 1.52 1.58 1.56 1.53 1.56 1.59 1.54 1.54 1.45 1.26 1.12 0.94 0.93 0.96 0.94 0.90 0.95 0.84 0.92 1.02 1.06 1.04 0.99 1.01 1.01 1.02 1.01 0.98 0.96 1.00 0.96 0.94 0.92 0.90 0.90 0.87 0.84 0.78
1.36 1.41 1.40 1.39 1.42 1.45 1.47 1.47 1.44 1.50 1.46 1.32 1.19 1.07 1.01 0.92 0.89 0.91 0.91 0.98 1.00 1.05 0.98 0.88 0.95 0.95 0.89 0.92 0.92 0.90 0.89 0.92 0.92 0.95 0.96 0.93 0.89 0.90 0.87 0.83 0.82 0.79 0.72
1.32 1.37 1.40 1.39 1.39 1.41 1.42 1.46 1.45 1.36 1.20 1.10 1.05 0.94 0.87 0.91 0.87 0.91 0.97 0.96 0.98 0.95 0.98 0.89 0.80 0.83 0.80 0.81 0.81 0.82 0.82 0.81 0.84 0.84 0.85 0.81 0.82 0.82 0.78 0.80 0.77 0.74 0.68
1.29 1.35 1.39 1.41 1.41 1.41 1.40 1.37 1.24 1.12 1.04 0.96 0.92 0.91 0.91 0.89 0.83 0.84 0.95 0.95 0.94 0.87 0.78 0.71 0.68 0.67 0.68 0.71 0.72 0.68 0.65 0.70 0.66 0.77 0.77 0.78 0.80 0.81 0.79 0.76 0.76 0.71 0.63
1.34 1.39 1.36 1.36 1.36 1.33 1.27 1.12 1.03 0.94 0.88 0.85 0.82 0.81 0.80 0.80 0.90 0.98 0.92 0.76 0.75 0.68 0.65 0.62 0.58 0.59 0.57 0.59 0.55 0.60 0.60 0.59 0.59 0.61 0.64 0.67 0.71 0.76 0.76 0.71 0.70 0.66 0.59
1.32 1.32 1.28 1.22 1.15 1.07 1.02 0.99 0.93 0.85 0.80 0.76 0.72 0.76 0.85 0.91 0.91 0.84 0.78 0.73 0.70 0.62 0.55 0.52 0.49 0.46 0.50 0.53 0.57 0.55 0.51 0.47 0.45 0.57 0.52 0.53 0.59 0.59 0.62 0.67 0.69 0.65 0.60
1.25 1.20 1.13 1.06 1.00 0.97 0.92 0.84 0.77 0.74 0.71 0.71 0.75 0.80 0.84 0.86 0.85 0.73 0.69 0.66 0.61 0.59 0.55 0.51 0.48 0.48 0.46 0.49 0.55 0.50 0.47 0.47 0.45 0.49 0.50 0.43 0.49 0.52 0.56 0.66 0.66 0.64 0.58
1.13 1.05 0.99 0.93 0.86 0.84 0.83 0.79 0.76 0.76 0.83 0.87 0.88 0.89 0.88 0.78 0.67 0.63 0.59 0.52 0.50 0.48 0.50 0.52 0.52 0.50 0.51 0.52 0.49 0.47 0.46 0.45 0.45 0.45 0.47 0.37 0.45 0.43 0.52 0.61 0.63 0.60 0.56
0.99 0.92 0.88 0.85 0.83 0.79 0.75 0.76 0.87 0.92 0.90 0.87 0.89 0.87 0.80 0.68 0.61 0.57 0.49 0.43 0.43 0.42 0.50 0.51 0.50 0.48 0.47 0.47 0.47 0.44 0.39 0.37 0.33 0.36 0.44 0.42 0.44 0.48 0.50 0.53 0.59 0.59 0.56
0.90 0.88 0.85 0.82 0.77 0.77 0.91 0.98 0.97 0.93 0.88 0.83 0.78 0.68 0.60 0.52 0.47 0.45 0.44 0.42 0.36 0.35 0.39 0.40 0.39 0.39 0.41 0.41 0.43 0.43 0.42 0.36 0.34 0.32 0.41 0.41 0.45 0.49 0.43 0.51 0.54 0.56 0.55

GFSMA_prec_pwat_219.txt.gz
Precipitable_Water
0.83 0.89 0.92 0.97 0.99 1.01 0.97 0.96 0.98 0.99 1.00 1.00 1.01 1.05 1.16 1.23 1.26 1.29 1.31 1.33 1.37 1.40 1.43 1.46 1.45 1.40 1.42 1.40 1.45 1.41 1.41 1.41 1.43 1.46 1.45 1.45 1.44 1.37 1.36 1.32 1.27 1.23 1.19
0.91 0.88 0.88 0.90 0.94 0.98 0.98 0.96 0.94 0.94 0.93 0.96 0.94 1.00 1.11 1.22 1.26 1.29 1.31 1.34 1.37 1.40 1.43 1.43 1.47 1.49 1.47 1.46 1.48 1.46 1.45 1.43 1.44 1.48 1.47 1.46 1.43 1.38 1.35 1.30 1.25 1.18 1.14
0.99 0.98 0.95 0.93 0.93 0.96 0.95 0.96 0.95 0.95 0.92 0.91 0.89 0.93 1.07 1.19 1.22 1.25 1.28 1.30 1.32 1.34 1.38 1.42 1.46 1.50 1.52 1.53 1.53 1.52 1.47 1.46 1.43 1.43 1.44 1.45 1.41 1.34 1.31 1.30 1.25 1.18 1.13
1.04 1.03 1.03 1.03 1.03 1.04 1.02 0.98 1.00 0.93 0.87 0.87 0.89 0.93 0.99 1.13 1.20 1.23 1.27 1.27 1.27 1.30 1.36 1.42 1.48 1.49 1.51 1.54 1.56 1.59 1.55 1.49 1.44 1.43 1.41 1.39 1.36 1.33 1.31 1.29 1.23 1.18 1.13
1.06 1.06 1.07 1.13 1.18 1.14 1.13 1.10 1.10 1.07 0.91 0.89 0.95 0.97 1.05 1.13 1.21 1.25 1.24 1.29 1.35 1.40 1.41 1.44 1.47 1.48 1.49 1.54 1.56 1.59 1.61 1.58 1.53 1.49 1.47 1.44 1.36 1.31 1.23 1.23 1.24 1.20 1.16
1.04 1.07 1.10 1.14 1.22 1.22 1.21 1.20 1.15 1.17 1.10 1.08 1.08 1.07 1.12 1.20 1.24 1.25 1.27 1.36 1.41 1.44 1.45 1.47 1.50 1.48 1.50 1.54 1.57 1.60 1.59 1.60 1.61 1.57 1.49 1.43 1.42 1.34 1.27 1.25 1.20 1.23 1.17
1.10 1.07 1.10 1.15 1.22 1.22 1.24 1.27 1.30 1.25 1.22 1.31 1.22 1.21 1.23 1.28 1.27 1.29 1.35 1.39 1.44 1.47 1.51 1.51 1.49 1.52 1.54 1.56 1.58 1.61 1.62 1.63 1.62 1.61 1.57 1.50 1.44 1.36 1.31 1.27 1.19 1.25 1.20
1.23 1.21 1.14 1.16 1.21 1.24 1.31 1.33 1.33 1.32 1.31 1.37 1.20 1.22 1.05 1.15 1.25 1.32 1.36 1.39 1.43 1.49 1.50 1.55 1.58 1.58 1.56 1.57 1.58 1.60 1.59 1.53 1.50 1.54 1.53 1.50 1.48 1.40 1.34 1.25 1.29 1.27 1.17
1.36 1.38 1.33 1.29 1.31 1.31 1.27 1.36 1.39 1.42 1.30 1.40 1.43 1.29 1.11 1.00 1.12 1.23 1.28 1.36 1.42 1.48 1.52 1.53 1.52 1.53 1.52 1.50 1.51 1.48 1.40 1.37 1.37 1.38 1.40 1.49 1.46 1.39 1.35 1.28 1.33 1.31 1.22
1.39 1.47 1.50 1.47 1.44 1.46 1.39 1.40 1.48 1.46 1.42 1.30 1.45 1.50 1.47 1.35 1.11 1.04 1.26 1.33 1.42 1.44 1.47 1.51 1.50 1.47 1.41 1.37 1.31 1.25 1.26 1.23 1.22 1.27 1.28 1.31 1.42 1.40 1.25 1.37 1.35 1.32 1.21
1.41 1.50 1.56 1.57 1.58 1.58 1.54 1.50 1.49 1.49 1.51 1.41 1.39 1.41 1.43 1.41 1.37 1.25 1.12 1.20 1.36 1.46 1.47 1.45 1.41 1.37 1.23 1.20 1.12 1.14 1.15 1.11 1.14 1.14 1.17 1.26 1.36 1.33 1.30 1.30 1.24 1.17 1.09
1.38 1.51 1.59 1.63 1.69 1.68 1.63 1.58 1.58 1.57 1.56 1.58 1.53 1.52 1.42 1.35 1.34 1.33 1.28 1.26 1.28 1.43 1.47 1.39 1.24 1.15 1.16 1.10 1.05 1.04 1.05 1.04 1.15 1.20 1.22 1.28 1.24 1.24 1.22 1.20 1.15 1.19 1.14
1.30 1.45 1.59 1.66 1.68 1.69 1.70 1.66 1.63 1.61 1.59 1.59 1.59 1.56 1.59 1.54 1.56 1.53 1.46 1.35 1.32 1.34 1.37 1.29 1.11 1.10 1.04 1.03 0.96 0.99 1.09 1.13 1.18 1.20 1.24 1.25 1.24 1.24 1.18 1.14 1.13 1.11 1.10
1.30 1.46 1.54 1.59 1.60 1.61 1.67 1.69 1.66 1.63 1.60 1.61 1.60 1.60 1.62 1.61 1.63 1.57 1.42 1.37 1.25 1.26 1.15 0.96 0.98 0.93 0.95 0.97 1.03 1.08 1.05 1.10 1.18 1.18 1.23 1.24 1.18 1.17 1.15 1.12 1.07 1.04 1.02
1.34 1.40 1.45 1.48 1.55 1.54 1.57 1.62 1.62 1.61 1.60 1.59 1.58 1.64 1.63 1.64 1.65 1.71 1.49 1.50 1.31 0.93 0.77 0.76 0.79 0.90 0.98 1.00 1.05 1.06 1.11 1.16 1.14 1.15 1.12 1.11 1.13 1.10 1.08 1.06 1.02 0.95 0.90
1.34 1.39 1.31 1.41 1.43 1.49 1.52 1.54 1.57 1.62 1.57 1.57 1.58 1.60 1.57 1.62 1.68 1.55 1.57 1.45 1.20 0.88 0.66 0.83 0.94 0.98 1.04 1.07 1.13 1.10 1.09 1.06 1.05 1.04 1.03 1.05 1.04 1.03 1.00 0.95 0.92 0.91 0.90
1.28 1.33 1.26 1.46 1.46 1.50 1.55 1.53 1.54 1.56 1.53 1.51 1.52 1.49 1.48 1.62 1.50 1.49 1.41 1.15 0.96 0.86 0.83 0.92 0.97 1.04 1.04 1.03 1.04 0.99 0.99 0.98 0.98 0.96 0.95 0.95 0.97 0.95 0.90 0.91 0.88 0.87 0.83
1.22 1.28 1.30 1.33 1.34 1.35 1.42 1.40 1.43 1.53 1.48 1.51 1.45 1.43 1.43 1.47 1.40 1.23 1.05 0.96 0.91 0.96 0.85 0.79 0.98 0.99 0.94 0.97 0.91 0.86 0.90 0.90 0.87 0.89 0.90 0.88 0.89 0.89 0.87 0.80 0.81 0.80 0.79
1.12 1.18 1.17 1.20 1.28 1.35 1.35 1.39 1.47 1.42 1.40 1.42 1.41 1.39 1.41 1.26 1.07 0.98 0.94 0.89 0.88 0.90 0.91 0.90 0.90 0.90 0.83 0.81 0.78 0.78 0.75 0.78 0.81 0.82 0.81 0.78 0.78 0.79 0.79 0.79 0.77 0.75 0.76
1.06 1.14 1.19 1.22 1.28 1.33 1.37 1.42 1.41 1.39 1.38 1.37 1.38 1.30 1.15 1.04 0.94 0.90 0.83 0.79 0.88 0.89 0.90 0.86 0.76 0.72 0.73 0.74 0.70 0.68 0.64 0.72 0.68 0.70 0.71 0.71 0.74 0.70 0.74 0.72 0.71 0.75 0.76
1.06 1.11 1.16 1.22 1.29 1.34 1.39 1.39 1.38 1.36 1.31 1.22 1.16 1.06 1.00 0.94 0.87 0.80 0.80 0.85 0.85 0.80 0.84 0.75 0.74 0.69 0.63 0.56 0.57 0.62 0.61 0.61 0.58 0.63 0.65 0.62 0.64 0.65 0.65 0.69 0.69 0.72 0.73
1.03 1.11 1.19 1.23 1.28 1.32 1.35 1.33 1.27 1.18 1.13 1.05 0.95 0.89 0.82 0.77 0.76 0.84 0.85 0.80 0.82 0.85 0.78 0.70 0.65 0.57 0.56 0.54 0.57 0.58 0.54 0.48 0.44 0.59 0.58 0.56 0.61 0.58 0.56 0.61 0.61 0.64 0.68
1.05 1.07 1.18 1.24 1.25 1.24 1.23 1.19 1.15 1.07 0.96 0.83 0.73 0.66 0.65 0.70 0.78 0.83 0.87 0.89 0.88 0.79 0.71 0.60 0.54 0.53 0.52 0.52 0.55 0.51 0.48 0.49 0.47 0.54 0.53 0.44 0.49 0.46 0.52 0.54 0.53 0.53 0.60
1.01 1.05 1.08 1.14 1.14 1.13 1.10 1.03 0.91 0.80 0.72 0.68 0.67 0.72 0.79 0.84 0.88 0.90 0.87 0.82 0.71 0.66 0.66 0.64 0.56 0.51 0.52 0.54 0.53 0.51 0.49 0.48 0.47 0.46 0.48 0.36 0.44 0.40 0.48 0.47 0.49 0.53 0.54
1.00 1.01 1.06 1.07 1.07 1.02 0.95 0.85 0.77 0.72 0.72 0.75 0.80 0.84 0.90 0.90 0.90 0.85 0.77 0.69 0.62 0.55 0.56 0.54 0.53 0.52 0.52 0.52 0.51 0.47 0.39 0.37 0.33 0.34 0.43 0.38 0.38 0.37 0.40 0.44 0.49 0.53 0.54
0.98 0.98 0.97 0.98 0.94 0.86 0.80 0.75 0.76 0.84 0.83 0.84 0.87 0.88 0.88 0.83 0.75 0.66 0.56 0.49 0.43 0.40 0.44 0.44 0.45 0.44 0.45 0.45 0.46 0.44 0.41 0.33 0.32 0.29 0.38 0.38 0.35 0.36 0.34 0.44 0.47 0.52 0.53

GFSMA_prec_pwat_222.txt.gz
Precipitable_Water
0.82 0.86 0.90 0.97 0.99 1.00 0.96 0.94 0.96 0.96 0.99 1.04 1.06 1.03 1.07 1.14 1.18 1.26 1.30 1.32 1.32 1.37 1.46 1.46 1.42 1.40 1.40 1.38 1.38 1.42 1.42 1.39 1.40 1.37 1.40 1.42 1.42 1.40 1.34 1.29 1.27 1.22 1.19
0.83 0.85 0.85 0.88 0.93 0.99 0.97 0.95 0.93 0.93 0.94 0.98 0.95 0.97 1.00 1.16 1.22 1.26 1.29 1.30 1.30 1.32 1.36 1.41 1.42 1.43 1.46 1.46 1.43 1.44 1.46 1.45 1.44 1.42 1.43 1.42 1.41 1.40 1.35 1.31 1.28 1.25 1.18
0.91 0.88 0.88 0.88 0.90 0.93 0.94 0.96 0.97 0.98 0.95 0.95 0.91 0.91 0.92 1.06 1.19 1.23 1.22 1.25 1.28 1.27 1.30 1.34 1.38 1.42 1.47 1.51 1.54 1.53 1.53 1.51 1.46 1.46 1.45 1.45 1.42 1.41 1.38 1.34 1.31 1.29 1.23
0.99 0.96 0.94 0.95 0.98 0.98 0.96 0.90 0.89 0.88 0.89 0.89 0.87 0.88 0.90 0.93 1.09 1.18 1.22 1.22 1.24 1.26 1.29 1.34 1.38 1.44 1.48 1.51 1.50 1.53 1.60 1.61 1.57 1.55 1.51 1.50 1.48 1.44 1.41 1.35 1.27 1.23 1.24
1.02 0.98 0.98 1.03 1.07 1.06 1.04 1.01 0.96 0.93 0.89 0.89 0.87 0.87 0.93 0.98 1.04 1.17 1.21 1.26 1.29 1.31 1.37 1.43 1.43 1.47 1.49 1.49 1.50 1.56 1.59 1.61 1.63 1.62 1.60 1.58 1.57 1.52 1.44 1.39 1.36 1.28 1.23
1.05 1.02 1.01 1.03 1.10 1.10 1.10 1.13 1.10 1.10 1.07 1.10 1.03 0.94 0.99 1.06 1.14 1.21 1.25 1.32 1.37 1.39 1.45 1.50 1.52 1.52 1.52 1.52 1.51 1.53 1.58 1.62 1.66 1.67 1.65 1.63 1.59 1.53 1.52 1.45 1.39 1.32 1.25
1.08 1.05 1.03 1.05 1.09 1.09 1.13 1.18 1.21 1.19 1.18 1.25 1.12 1.10 1.10 1.19 1.20 1.24 1.33 1.34 1.36 1.41 1.49 1.54 1.56 1.57 1.56 1.54 1.55 1.56 1.61 1.62 1.64 1.66 1.66 1.59 1.53 1.51 1.53 1.46 1.45 1.39 1.30
1.08 1.08 1.07 1.06 1.10 1.09 1.14 1.19 1.24 1.22 1.25 1.34 1.16 1.16 1.03 1.13 1.22 1.28 1.33 1.34 1.37 1.45 1.48 1.54 1.58 1.59 1.61 1.63 1.59 1.58 1.59 1.58 1.56 1.53 1.51 1.43 1.60 1.50 1.44 1.43 1.46 1.48 1.36
1.11 1.12 1.14 1.15 1.19 1.21 1.15 1.21 1.26 1.26 1.22 1.36 1.42 1.27 1.07 0.96 1.16 1.29 1.33 1.40 1.41 1.44 1.49 1.54 1.58 1.59 1.60 1.58 1.54 1.51 1.46 1.37 1.32 1.37 1.36 1.27 1.27 1.30 1.32 1.40 1.40 1.42 1.35
1.14 1.20 1.25 1.29 1.32 1.36 1.31 1.30 1.38 1.34 1.38 1.29 1.44 1.46 1.41 1.29 1.09 1.05 1.31 1.41 1.49 1.49 1.52 1.54 1.57 1.57 1.58 1.49 1.46 1.36 1.25 1.22 1.24 1.21 1.18 1.16 1.18 1.23 1.27 1.28 1.26 1.35 1.37
1.20 1.27 1.32 1.36 1.36 1.43 1.49 1.50 1.49 1.45 1.43 1.41 1.39 1.41 1.41 1.38 1.37 1.26 1.14 1.28 1.44 1.52 1.57 1.56 1.56 1.52 1.46 1.37 1.27 1.22 1.18 1.09 1.07 1.07 1.04 1.12 1.18 1.19 1.28 1.26 1.25 1.30 1.28
1.17 1.27 1.35 1.39 1.42 1.46 1.53 1.59 1.61 1.56 1.53 1.50 1.51 1.51 1.44 1.38 1.35 1.34 1.28 1.30 1.34 1.47 1.58 1.58 1.58 1.51 1.46 1.28 1.19 1.16 1.09 0.99 0.95 1.06 1.11 1.16 1.26 1.30 1.32 1.31 1.28 1.22 1.21
1.06 1.16 1.26 1.32 1.41 1.53 1.65 1.64 1.61 1.60 1.57 1.53 1.52 1.48 1.55 1.55 1.59 1.51 1.44 1.38 1.37 1.49 1.52 1.53 1.53 1.46 1.34 1.15 1.09 0.99 0.91 0.99 1.10 1.08 1.14 1.17 1.24 1.27 1.28 1.22 1.19 1.14 1.13
1.07 1.21 1.26 1.34 1.42 1.54 1.57 1.60 1.56 1.58 1.61 1.58 1.57 1.60 1.57 1.57 1.61 1.56 1.48 1.43 1.31 1.33 1.34 1.37 1.52 1.27 1.13 0.99 0.93 0.92 1.00 1.07 1.06 1.10 1.18 1.21 1.21 1.20 1.15 1.14 1.13 1.08 1.04
1.09 1.19 1.28 1.32 1.38 1.42 1.48 1.54 1.49 1.49 1.54 1.57 1.58 1.62 1.60 1.61 1.59 1.58 1.60 1.55 1.38 1.17 1.15 1.37 1.16 1.07 0.92 0.96 1.00 1.07 1.07 1.05 1.06 1.08 1.05 1.06 1.08 1.11 1.09 1.08 1.07 1.06 0.98
1.07 1.14 1.23 1.28 1.31 1.32 1.40 1.44 1.44 1.48 1.44 1.51 1.56 1.59 1.61 1.59 1.54 1.56 1.60 1.56 1.50 1.30 1.20 1.20 1.01 0.93 0.97 1.05 1.07 1.03 1.05 1.03 0.98 0.96 1.00 0.99 1.00 1.00 0.97 0.99 0.98 0.91 0.89
1.03 1.09 1.18 1.22 1.32 1.23 1.27 1.39 1.40 1.41 1.41 1.41 1.49 1.53 1.52 1.53 1.49 1.52 1.52 1.48 1.46 1.40 1.16 1.03 1.02 0.99 0.99 0.94 0.94 1.07 1.01 0.90 0.89 0.92 0.92 0.92 0.92 0.94 0.95 0.98 0.93 0.89 0.87
1.00 1.04 1.09 1.15 1.18 1.19 1.22 1.30 1.31 1.36 1.39 1.37 1.42 1.44 1.46 1.47 1.43 1.46 1.42 1.35 1.37 1.22 1.00 0.87 0.96 0.92 0.89 0.92 0.98 0.93 0.85 0.87 0.83 0.87 0.86 0.86 0.85 0.88 0.89 0.88 0.82 0.82 0.82
0.97 0.99 1.01 1.03 1.07 1.16 1.17 1.22 1.30 1.31 1.34 1.44 1.43 1.39 1.33 1.36 1.37 1.39 1.34 1.22 1.17 1.08 0.97 0.91 0.84 0.84 0.88 0.90 0.87 0.82 0.77 0.79 0.81 0.83 0.80 0.81 0.81 0.83 0.82 0.81 0.81 0.78 0.80
0.84 0.89 0.95 0.97 1.02 1.09 1.15 1.20 1.23 1.26 1.29 1.34 1.44 1.36 1.36 1.32 1.27 1.23 1.18 1.09 1.01 0.89 0.91 0.82 0.76 0.80 0.83 0.83 0.81 0.72 0.68 0.74 0.69 0.71 0.69 0.67 0.70 0.72 0.70 0.74 0.70 0.71 0.72
0.89 0.94 0.95 0.98 0.99 1.04 1.09 1.14 1.21 1.23 1.27 1.34 1.27 1.30 1.33 1.28 1.21 1.16 1.03 0.89 0.82 0.80 0.73 0.73 0.79 0.80 0.76 0.73 0.68 0.67 0.65 0.64 0.65 0.64 0.60 0.61 0.60 0.67 0.64 0.67 0.70 0.64 0.68
0.89 0.94 0.95 0.97 0.97 1.02 1.09 1.16 1.20 1.22 1.26 1.24 1.22 1.21 1.17 1.09 1.03 0.87 0.80 0.79 0.77 0.72 0.78 0.79 0.78 0.75 0.69 0.64 0.65 0.63 0.59 0.54 0.49 0.60 0.55 0.53 0.58 0.57 0.57 0.64 0.63 0.67 0.59
0.85 0.89 0.93 0.96 1.00 1.02 1.06 1.09 1.19 1.18 1.16 1.16 1.07 1.00 0.92 0.87 0.81 0.75 0.76 0.81 0.83 0.87 0.87 0.83 0.73 0.67 0.65 0.63 0.61 0.54 0.52 0.51 0.51 0.54 0.52 0.44 0.51 0.49 0.53 0.56 0.55 0.53 0.56
0.89 0.90 0.95 0.97 0.98 1.00 1.05 1.09 1.09 1.07 1.05 0.98 0.92 0.85 0.78 0.72 0.75 0.79 0.80 0.81 0.81 0.82 0.83 0.78 0.72 0.66 0.66 0.61 0.55 0.52 0.50 0.48 0.47 0.48 0.49 0.38 0.43 0.41 0.47 0.53 0.50 0.48 0.52
0.97 0.98 0.98 0.96 0.97 0.98 0.99 1.02 1.00 0.98 1.01 0.84 0.78 0.76 0.78 0.80 0.83 0.84 0.82 0.78 0.79 0.77 0.73 0.68 0.62 0.56 0.53 0.54 0.54 0.51 0.44 0.41 0.37 0.38 0.43 0.38 0.37 0.37 0.41 0.41 0.44 0.46 0.49
1.02 1.02 0.99 0.99 0.96 0.92 0.92 0.91 0.87 0.82 0.77 0.78 0.81 0.82 0.83 0.83 0.85 0.86 0.82 0.75 0.65 0.58 0.53 0.49 0.47 0.49 0.50 0.49 0.47 0.47 0.44 0.37 0.35 0.32 0.37 0.34 0.34 0.36 0.33 0.40 0.41 0.44 0.46

GFSMA_prec_pwat_228.txt.gz
Precipitable_Water
0.99 1.02 1.05 1.07 1.09 1.11 1.07 1.08 1.10 1.12 1.13 1.13 1.14 1.12 1.11 1.10 1.17 1.23 1.35 1.36 1.31 1.34 1.36 1.40 1.40 1.38 1.33 1.32 1.31 1.32 1.35 1.36 1.37 1.35 1.35 1.37 1.42 1.44 1.43 1.40 1.35 1.33 1.30
0.95 0.97 0.99 1.02 1.04 1.06 1.08 1.08 1.08 1.10 1.11 1.12 1.09 1.12 1.11 1.09 1.09 1.22 1.30 1.38 1.31 1.34 1.35 1.37 1.41 1.39 1.39 1.35 1.36 1.37 1.37 1.40 1.44 1.44 1.44 1.42 1.43 1.45 1.47 1.46 1.43 1.38 1.35
0.94 0.92 0.94 0.97 0.99 1.05 1.05 1.04 1.04 1.06 1.05 1.08 1.07 1.11 1.11 1.10 1.04 1.10 1.24 1.30 1.37 1.30 1.30 1.32 1.39 1.39 1.39 1.39 1.40 1.43 1.46 1.48 1.49 1.50 1.51 1.52 1.51 1.50 1.52 1.51 1.50 1.48 1.44
0.96 0.94 0.90 0.92 0.97 1.02 1.04 1.02 1.00 0.98 0.97 0.98 0.98 1.01 1.03 1.05 1.04 1.02 1.10 1.23 1.28 1.29 1.28 1.24 1.28 1.34 1.38 1.40 1.44 1.49 1.55 1.56 1.56 1.54 1.57 1.58 1.59 1.56 1.55 1.54 1.52 1.53 1.48
0.98 0.95 0.90 0.93 0.98 0.98 1.00 1.00 0.98 0.98 0.95 0.97 0.96 0.98 0.99 0.98 1.00 1.01 0.99 1.08 1.23 1.25 1.24 1.28 1.23 1.27 1.38 1.45 1.48 1.52 1.56 1.59 1.62 1.62 1.62 1.63 1.63 1.63 1.64 1.63 1.60 1.54 1.50
1.04 0.99 0.94 0.94 1.00 0.98 0.98 1.00 0.99 1.04 1.01 1.00 1.00 0.98 1.02 1.03 1.03 1.01 1.01 1.06 1.13 1.27 1.29 1.29 1.33 1.32 1.39 1.48 1.52 1.59 1.61 1.62 1.63 1.62 1.59 1.60 1.65 1.68 1.66 1.65 1.63 1.60 1.51
1.11 1.06 1.01 0.99 1.01 0.97 0.96 1.02 1.05 1.03 1.04 1.11 1.06 1.08 1.12 1.17 1.20 1.20 1.20 1.19 1.19 1.26 1.35 1.38 1.41 1.44 1.48 1.52 1.56 1.61 1.63 1.63 1.64 1.65 1.64 1.65 1.68 1.67 1.65 1.62 1.57 1.60 1.49
1.14 1.09 1.04 1.00 1.02 0.99 1.00 1.02 1.05 1.02 1.05 1.13 1.04 1.07 0.98 1.18 1.35 1.37 1.34 1.30 1.36 1.43 1.45 1.49 1.53 1.53 1.54 1.61 1.65 1.70 1.73 1.72 1.71 1.70 1.69 1.65 1.57 1.51 1.47 1.42 1.49 1.52 1.47
1.18 1.16 1.08 1.05 1.03 1.05 1.00 1.06 1.08 1.06 0.98 1.12 1.18 1.04 0.97 0.97 1.15 1.40 1.44 1.45 1.51 1.57 1.60 1.64 1.65 1.66 1.72 1.74 1.75 1.77 1.77 1.72 1.69 1.64 1.60 1.48 1.30 1.32 1.35 1.39 1.34 1.32 1.34
1.14 1.18 1.17 1.11 1.08 1.08 1.06 1.09 1.15 1.12 1.12 1.03 1.19 1.25 1.19 1.14 1.10 1.08 1.39 1.46 1.56 1.62 1.68 1.72 1.72 1.77 1.79 1.77 1.77 1.77 1.73 1.69 1.60 1.50 1.38 1.33 1.31 1.28 1.17 1.19 1.20 1.26 1.32
1.08 1.10 1.12 1.14 1.12 1.12 1.11 1.15 1.16 1.15 1.17 1.16 1.15 1.23 1.28 1.25 1.27 1.18 1.07 1.28 1.45 1.53 1.58 1.60 1.63 1.65 1.70 1.72 1.71 1.67 1.70 1.60 1.47 1.32 1.29 1.24 1.10 1.15 1.16 1.15 1.19 1.26 1.37
0.97 1.02 1.07 1.10 1.14 1.13 1.11 1.14 1.18 1.18 1.18 1.22 1.28 1.32 1.30 1.25 1.25 1.26 1.21 1.23 1.28 1.45 1.53 1.64 1.66 1.69 1.70 1.71 1.70 1.67 1.60 1.50 1.41 1.36 1.22 1.05 1.09 1.15 1.17 1.22 1.28 1.31 1.37
0.90 0.93 1.00 1.04 1.08 1.11 1.13 1.15 1.15 1.19 1.23 1.26 1.34 1.40 1.45 1.41 1.43 1.39 1.35 1.27 1.25 1.37 1.42 1.57 1.65 1.68 1.65 1.60 1.57 1.56 1.49 1.41 1.39 1.16 1.10 1.09 1.14 1.14 1.14 1.18 1.21 1.27 1.31
0.90 1.03 1.02 1.07 1.08 1.10 1.12 1.15 1.17 1.22 1.26 1.31 1.38 1.44 1.45 1.47 1.49 1.46 1.36 1.30 1.16 1.24 1.37 1.42 1.59 1.60 1.57 1.57 1.54 1.42 1.29 1.32 1.21 1.07 1.08 1.12 1.07 1.08 1.08 1.08 1.13 1.18 1.19
0.96 1.03 1.06 1.07 1.07 1.10 1.14 1.15 1.15 1.17 1.26 1.32 1.33 1.37 1.37 1.40 1.43 1.46 1.49 1.45 1.31 1.13 1.18 1.39 1.44 1.55 1.53 1.47 1.49 1.41 1.38 1.17 1.07 1.10 1.09 1.01 0.97 0.99 1.03 1.03 1.11 1.11 1.12
0.96 1.04 1.06 1.05 1.07 1.12 1.16 1.16 1.16 1.21 1.22 1.24 1.27 1.28 1.30 1.35 1.37 1.40 1.40 1.43 1.44 1.34 1.17 1.37 1.46 1.49 1.47 1.43 1.42 1.35 1.23 1.15 1.08 1.01 0.99 0.93 0.93 1.01 0.97 0.99 1.04 1.00 1.02
0.99 1.03 1.05 1.00 1.03 1.07 1.12 1.14 1.16 1.20 1.16 1.18 1.20 1.19 1.19 1.29 1.29 1.32 1.36 1.38 1.37 1.40 1.25 1.30 1.41 1.43 1.38 1.34 1.34 1.33 1.20 1.16 1.05 0.96 0.92 0.91 0.99 0.95 0.93 0.94 0.96 1.01 0.96
1.03 1.05 1.00 0.98 0.99 1.01 1.08 1.10 1.11 1.12 1.09 1.07 1.14 1.15 1.18 1.25 1.23 1.28 1.29 1.30 1.35 1.44 1.31 1.20 1.29 1.29 1.28 1.32 1.29 1.15 1.08 1.04 0.93 0.89 0.97 0.97 0.93 0.86 0.87 0.88 0.91 0.92 0.90
1.04 1.03 0.97 0.90 0.90 0.95 1.00 1.05 1.07 1.08 1.04 1.06 1.09 1.10 1.12 1.16 1.16 1.22 1.25 1.26 1.32 1.36 1.35 1.22 1.19 1.28 1.29 1.28 1.17 1.05 0.99 0.94 0.93 0.92 0.88 0.86 0.81 0.78 0.79 0.83 0.86 0.90 0.90
1.01 0.92 0.87 0.87 0.90 0.95 1.00 1.02 1.02 1.04 1.04 1.00 1.05 1.05 1.07 1.12 1.11 1.16 1.20 1.25 1.24 1.28 1.31 1.27 1.23 1.20 1.15 1.13 1.01 0.86 0.79 0.84 0.85 0.86 0.84 0.77 0.72 0.70 0.71 0.74 0.80 0.84 0.83
0.92 0.86 0.84 0.87 0.92 0.98 0.99 0.99 0.99 0.96 0.92 0.91 0.94 0.99 1.02 1.08 1.11 1.22 1.22 1.23 1.25 1.22 1.22 1.15 1.07 1.02 0.93 0.83 0.80 0.83 0.80 0.79 0.77 0.77 0.71 0.68 0.67 0.68 0.66 0.68 0.69 0.73 0.76
0.87 0.85 0.85 0.88 0.92 0.96 1.02 1.02 0.98 0.93 0.94 0.91 0.89 0.93 1.01 1.07 1.12 1.19 1.24 1.31 1.25 1.15 1.07 0.98 0.90 0.81 0.78 0.86 0.86 0.82 0.77 0.68 0.59 0.71 0.66 0.63 0.67 0.60 0.59 0.60 0.63 0.62 0.62
0.86 0.84 0.89 0.93 0.93 0.99 1.05 1.05 1.04 1.00 0.96 0.94 0.93 0.93 0.98 1.06 1.09 1.07 1.18 1.19 1.11 1.08 0.99 0.85 0.77 0.79 0.82 0.85 0.83 0.73 0.70 0.66 0.64 0.69 0.64 0.53 0.56 0.51 0.54 0.56 0.56 0.55 0.53
0.85 0.87 0.90 0.94 0.96 0.99 1.06 1.07 1.07 1.05 0.97 0.93 0.95 0.93 1.00 1.08 1.02 1.02 0.99 0.92 0.86 0.81 0.77 0.81 0.85 0.86 0.85 0.85 0.80 0.76 0.71 0.67 0.63 0.60 0.61 0.45 0.50 0.46 0.50 0.52 0.51 0.50 0.49
0.89 0.89 0.94 0.96 0.95 0.97 1.05 1.08 1.04 0.96 0.92 0.96 0.99 0.99 1.00 0.96 0.91 0.89 0.82 0.77 0.73 0.75 0.82 0.82 0.81 0.80 0.81 0.81 0.78 0.69 0.57 0.54 0.50 0.50 0.56 0.52 0.46 0.43 0.43 0.41 0.45 0.46 0.47
0.93 0.96 0.97 0.99 1.02 1.00 1.06 1.11 1.07 0.97 0.91 0.92 0.97 0.98 0.94 0.90 0.84 0.76 0.71 0.72 0.72 0.73 0.72 0.72 0.73 0.73 0.74 0.73 0.66 0.61 0.62 0.50 0.46 0.42 0.48 0.44 0.40 0.40 0.33 0.37 0.39 0.41 0.43

GFSMA_prec_pwat_231.txt.gz
Precipitable_Water
1.13 1.14 1.11 1.13 1.08 1.10 1.03 1.09 1.11 1.15 1.14 1.20 1.22 1.22 1.21 1.16 1.14 1.19 1.29 1.41 1.38 1.30 1.34 1.40 1.39 1.36 1.32 1.29 1.26 1.26 1.26 1.29 1.31 1.32 1.33 1.33 1.34 1.38 1.42 1.42 1.40 1.40 1.37
1.07 1.09 1.06 1.09 1.09 1.12 1.14 1.11 1.13 1.14 1.17 1.17 1.13 1.14 1.12 1.13 1.13 1.12 1.20 1.34 1.34 1.29 1.26 1.31 1.34 1.36 1.34 1.32 1.30 1.28 1.29 1.31 1.33 1.38 1.41 1.42 1.41 1.41 1.45 1.47 1.47 1.46 1.44
1.01 0.98 1.01 1.04 1.08 1.13 1.12 1.12 1.11 1.13 1.13 1.16 1.14 1.17 1.16 1.15 1.12 1.09 1.12 1.19 1.34 1.33 1.27 1.27 1.30 1.33 1.33 1.32 1.31 1.31 1.30 1.33 1.40 1.44 1.48 1.50 1.50 1.49 1.51 1.53 1.53 1.53 1.53
1.00 0.98 0.94 0.96 1.02 1.06 1.08 1.06 1.06 1.04 1.05 1.06 1.08 1.09 1.10 1.13 1.14 1.12 1.09 1.10 1.20 1.30 1.34 1.29 1.25 1.25 1.29 1.29 1.31 1.35 1.39 1.43 1.48 1.52 1.54 1.57 1.57 1.57 1.58 1.59 1.59 1.57 1.56
1.03 0.99 0.94 0.94 1.00 0.98 1.00 1.04 1.02 1.01 0.99 1.01 1.03 1.06 1.10 1.09 1.10 1.10 1.07 1.07 1.09 1.16 1.27 1.37 1.34 1.29 1.22 1.29 1.36 1.41 1.48 1.50 1.52 1.56 1.59 1.61 1.62 1.62 1.63 1.63 1.63 1.64 1.64
1.08 1.00 0.95 0.93 0.97 0.95 0.96 1.00 1.00 1.03 0.99 0.98 1.00 1.00 1.06 1.11 1.14 1.12 1.12 1.14 1.13 1.17 1.31 1.33 1.37 1.38 1.32 1.33 1.37 1.45 1.51 1.58 1.63 1.67 1.68 1.66 1.64 1.65 1.65 1.66 1.68 1.69 1.69
1.15 1.07 1.01 0.96 0.96 0.90 0.92 0.97 0.98 0.95 0.97 1.03 0.99 0.95 1.02 1.09 1.11 1.12 1.17 1.19 1.18 1.25 1.33 1.44 1.51 1.54 1.58 1.55 1.50 1.51 1.56 1.62 1.67 1.73 1.76 1.74 1.71 1.70 1.72 1.75 1.72 1.71 1.66
1.18 1.16 1.06 0.99 0.97 0.93 0.93 0.95 0.97 0.94 0.98 1.05 0.96 0.96 0.84 0.97 1.07 1.16 1.29 1.35 1.33 1.34 1.37 1.48 1.60 1.66 1.69 1.71 1.75 1.68 1.69 1.72 1.77 1.82 1.83 1.77 1.74 1.71 1.66 1.58 1.56 1.46 1.50
1.14 1.16 1.16 1.11 1.03 0.99 0.93 0.96 0.99 0.97 0.91 1.03 1.07 0.97 0.86 0.80 0.97 1.19 1.34 1.40 1.41 1.39 1.44 1.55 1.64 1.73 1.74 1.73 1.75 1.80 1.79 1.75 1.73 1.75 1.81 1.70 1.67 1.60 1.41 1.36 1.33 1.28 1.32
1.11 1.15 1.16 1.17 1.15 1.10 1.01 1.00 1.05 1.04 1.04 0.94 1.06 1.09 1.09 1.06 0.92 0.94 1.28 1.42 1.51 1.42 1.48 1.59 1.65 1.68 1.71 1.73 1.76 1.74 1.71 1.67 1.69 1.71 1.70 1.60 1.53 1.44 1.32 1.24 1.28 1.26 1.28
1.07 1.10 1.15 1.15 1.15 1.17 1.13 1.08 1.07 1.08 1.11 1.06 1.03 1.06 1.08 1.14 1.18 1.07 0.97 1.14 1.41 1.50 1.53 1.54 1.60 1.62 1.64 1.67 1.72 1.74 1.69 1.64 1.66 1.67 1.58 1.48 1.43 1.29 1.25 1.27 1.24 1.23 1.27
1.03 1.05 1.09 1.12 1.14 1.16 1.14 1.13 1.14 1.15 1.13 1.13 1.12 1.10 1.04 1.03 1.07 1.14 1.08 1.15 1.21 1.37 1.49 1.53 1.52 1.57 1.58 1.62 1.69 1.73 1.67 1.59 1.52 1.49 1.39 1.35 1.28 1.22 1.22 1.18 1.16 1.18 1.23
0.92 0.95 0.99 1.00 1.03 1.07 1.12 1.16 1.15 1.13 1.16 1.11 1.12 1.10 1.15 1.15 1.24 1.23 1.25 1.22 1.20 1.32 1.37 1.48 1.50 1.52 1.55 1.62 1.68 1.68 1.63 1.55 1.48 1.38 1.37 1.33 1.21 1.16 1.16 1.15 1.11 1.13 1.13
0.87 0.95 0.99 1.02 1.03 1.07 1.11 1.15 1.13 1.13 1.16 1.15 1.13 1.17 1.20 1.26 1.33 1.33 1.29 1.25 1.11 1.17 1.27 1.31 1.45 1.47 1.53 1.61 1.64 1.66 1.55 1.48 1.35 1.27 1.27 1.14 1.07 1.10 1.07 1.03 1.01 1.05 1.17
0.91 0.92 0.96 0.98 1.03 1.07 1.10 1.11 1.06 1.04 1.10 1.15 1.17 1.23 1.23 1.31 1.39 1.40 1.39 1.36 1.21 0.99 1.02 1.20 1.25 1.47 1.52 1.57 1.54 1.59 1.51 1.40 1.33 1.30 1.23 1.01 1.02 1.03 0.97 0.92 0.94 1.07 1.15
0.91 0.93 0.95 0.96 1.00 1.07 1.10 1.09 1.02 1.06 1.09 1.14 1.21 1.22 1.26 1.31 1.32 1.35 1.35 1.35 1.32 1.20 1.02 1.19 1.28 1.40 1.46 1.47 1.52 1.50 1.46 1.36 1.34 1.24 1.08 1.04 0.99 0.94 0.88 0.91 1.00 1.04 1.09
0.92 0.94 0.97 0.97 0.98 1.05 1.10 1.07 0.99 1.04 1.06 1.12 1.19 1.20 1.20 1.29 1.25 1.25 1.27 1.29 1.25 1.24 1.09 1.15 1.29 1.39 1.37 1.38 1.42 1.46 1.43 1.38 1.29 1.18 1.08 1.04 0.95 0.90 0.94 0.95 0.94 0.96 1.01
0.93 0.99 1.02 1.02 1.04 1.09 1.12 1.01 0.96 1.01 1.04 1.09 1.13 1.13 1.12 1.24 1.23 1.23 1.21 1.21 1.23 1.27 1.20 1.08 1.22 1.24 1.29 1.32 1.33 1.37 1.34 1.31 1.24 1.11 1.00 0.94 0.86 0.90 0.90 0.90 0.90 0.90 0.94
0.95 1.02 1.06 1.03 1.05 1.10 1.06 1.01 1.02 1.00 1.07 1.13 1.11 1.08 1.06 1.10 1.07 1.17 1.19 1.16 1.20 1.21 1.23 1.17 1.14 1.21 1.24 1.32 1.31 1.29 1.26 1.17 1.09 0.97 0.91 0.88 0.87 0.84 0.80 0.76 0.80 0.85 0.88
0.97 1.03 1.09 1.07 1.13 1.12 1.01 1.01 0.99 1.00 1.08 1.11 1.16 1.11 1.07 1.04 1.02 1.02 1.08 1.08 1.15 1.14 1.21 1.14 1.14 1.17 1.18 1.23 1.26 1.18 1.08 1.04 0.91 0.89 0.90 0.89 0.85 0.77 0.70 0.67 0.71 0.79 0.84
1.06 1.10 1.12 1.13 1.15 1.09 0.98 0.94 0.95 0.98 1.03 1.02 1.05 1.05 1.03 1.06 1.07 1.08 1.07 1.07 1.12 1.07 1.09 1.11 1.12 1.11 1.14 1.11 1.06 1.02 0.91 0.85 0.82 0.86 0.83 0.81 0.77 0.72 0.69 0.69 0.69 0.70 0.73
1.17 1.19 1.15 1.12 1.05 0.99 0.95 0.93 0.95 0.95 0.99 0.96 0.92 0.91 0.94 0.99 1.03 1.07 1.11 1.13 1.15 1.09 1.06 1.13 1.11 1.07 1.05 1.01 0.93 0.89 0.78 0.75 0.69 0.82 0.73 0.71 0.73 0.69 0.67 0.66 0.65 0.66 0.67
1.22 1.20 1.12 1.07 0.97 0.90 0.90 0.92 0.98 1.02 0.96 0.93 0.92 0.93 0.94 0.97 1.00 1.01 1.01 1.04 1.09 1.14 1.16 1.12 1.02 0.96 0.91 0.83 0.84 0.80 0.79 0.75 0.71 0.80 0.74 0.63 0.64 0.56 0.60 0.62 0.61 0.61 0.60
1.22 1.16 1.09 1.01 0.91 0.87 0.89 0.96 1.01 1.04 0.99 1.00 1.02 1.02 0.99 0.95 0.97 0.97 1.03 1.01 1.01 1.05 1.00 0.94 0.87 0.86 0.82 0.86 0.85 0.82 0.77 0.75 0.76 0.74 0.69 0.49 0.53 0.50 0.56 0.56 0.57 0.57 0.55
1.19 1.16 1.10 1.01 0.96 0.88 0.92 0.95 1.01 0.98 0.98 1.02 1.05 1.03 1.01 1.00 1.03 1.05 1.02 0.92 0.87 0.84 0.81 0.78 0.79 0.81 0.82 0.81 0.80 0.77 0.71 0.65 0.56 0.52 0.60 0.57 0.51 0.48 0.48 0.47 0.49 0.50 0.49
1.12 1.10 1.06 1.07 1.04 0.94 0.94 0.98 1.02 1.00 0.99 1.03 1.03 1.04 1.05 1.04 1.03 0.97 0.89 0.81 0.72 0.72 0.72 0.75 0.77 0.76 0.76 0.76 0.75 0.76 0.69 0.53 0.49 0.47 0.52 0.47 0.45 0.45 0.39 0.42 0.43 0.44 0.45

GFSMA_prec_pwat_237.txt.gz
Precipitable_Water
0.91 0.93 0.96 0.98 0.95 0.91 0.94 0.97 0.99 1.00 1.01 1.04 1.19 1.25 1.25 1.25 1.24 1.23 1.25 1.29 1.30 1.33 1.33 1.29 1.26 1.19 1.18 1.17 1.16 1.14 1.14 1.14 1.15 1.18 1.20 1.23 1.27 1.31 1.34 1.35 1.36 1.39 1.43
0.99 1.00 1.00 1.00 1.02 1.00 0.89 0.93 0.95 0.97 0.98 1.02 1.00 1.18 1.24 1.24 1.22 1.21 1.21 1.22 1.26 1.28 1.30 1.32 1.31 1.27 1.20 1.18 1.19 1.17 1.16 1.16 1.17 1.19 1.22 1.25 1.28 1.34 1.38 1.43 1.46 1.47 1.47
0.94 0.98 0.97 0.97 1.01 1.06 0.99 0.89 0.94 0.97 1.00 1.04 1.03 1.03 1.02 1.04 1.03 1.03 1.05 1.12 1.13 1.16 1.21 1.28 1.31 1.31 1.31 1.29 1.28 1.27 1.25 1.23 1.23 1.24 1.26 1.29 1.34 1.39 1.44 1.49 1.56 1.60 1.60
0.89 0.98 0.98 0.95 1.01 1.02 0.99 0.94 0.91 0.91 0.92 0.95 0.97 1.00 1.03 1.03 1.02 1.02 1.04 1.03 1.07 1.09 1.13 1.20 1.27 1.33 1.38 1.41 1.45 1.46 1.42 1.41 1.43 1.44 1.45 1.47 1.50 1.51 1.55 1.60 1.65 1.68 1.70
0.90 0.92 0.99 0.97 0.98 1.00 0.96 0.96 0.94 0.92 0.89 0.93 0.96 1.00 1.04 1.03 1.03 1.04 1.03 1.04 1.07 1.10 1.12 1.15 1.24 1.33 1.41 1.47 1.53 1.57 1.59 1.59 1.59 1.58 1.59 1.64 1.70 1.70 1.71 1.72 1.73 1.76 1.79
0.96 0.93 0.95 0.97 0.98 0.95 0.97 0.98 0.94 0.98 0.93 0.90 0.93 0.93 0.98 1.02 1.06 1.04 1.05 1.10 1.12 1.12 1.13 1.17 1.19 1.22 1.30 1.42 1.48 1.53 1.58 1.62 1.65 1.61 1.62 1.68 1.73 1.77 1.76 1.76 1.79 1.75 1.81
1.01 0.96 0.94 0.94 0.94 0.88 0.87 0.92 0.94 0.91 0.89 0.95 0.90 0.88 0.93 0.98 0.97 1.04 1.08 1.08 1.09 1.13 1.18 1.20 1.25 1.28 1.29 1.35 1.40 1.45 1.53 1.60 1.68 1.71 1.70 1.72 1.75 1.72 1.74 1.75 1.71 1.72 1.68
1.03 1.02 0.97 0.94 0.94 0.90 0.89 0.89 0.90 0.88 0.90 0.95 0.83 0.83 0.69 0.79 0.88 0.97 1.02 1.06 1.08 1.14 1.17 1.24 1.29 1.35 1.36 1.37 1.38 1.43 1.53 1.66 1.66 1.64 1.67 1.69 1.70 1.69 1.70 1.72 1.71 1.61 1.56
1.01 0.99 0.99 0.98 0.97 0.95 0.87 0.89 0.91 0.88 0.81 0.94 0.96 0.83 0.68 0.60 0.72 0.87 0.92 0.98 1.04 1.10 1.20 1.26 1.31 1.38 1.41 1.42 1.44 1.51 1.56 1.60 1.64 1.66 1.66 1.67 1.66 1.67 1.68 1.69 1.62 1.53 1.44
0.99 0.97 0.97 0.98 0.98 0.99 0.93 0.89 0.93 0.91 0.92 0.82 0.98 0.97 0.92 0.84 0.70 0.68 0.93 0.97 1.06 1.08 1.14 1.24 1.32 1.46 1.48 1.48 1.52 1.55 1.56 1.57 1.59 1.63 1.61 1.59 1.63 1.60 1.60 1.56 1.47 1.43 1.36
1.00 0.99 0.98 0.96 0.96 0.97 0.99 0.97 0.95 0.92 0.93 0.87 0.87 0.90 0.92 0.91 0.90 0.78 0.66 0.78 0.99 1.07 1.14 1.23 1.39 1.49 1.53 1.56 1.52 1.56 1.58 1.60 1.58 1.58 1.56 1.57 1.62 1.51 1.48 1.36 1.28 1.28 1.24
0.97 1.01 1.00 0.99 0.98 0.98 0.95 0.95 0.97 0.97 0.94 0.95 0.93 0.94 0.89 0.82 0.79 0.82 0.76 0.76 0.80 0.93 1.13 1.30 1.40 1.46 1.53 1.52 1.54 1.55 1.56 1.55 1.53 1.53 1.50 1.51 1.47 1.44 1.36 1.25 1.26 1.23 1.16
0.91 0.89 0.92 0.95 0.95 0.95 0.96 0.98 0.99 0.98 0.96 0.95 0.95 0.92 0.99 0.95 0.97 0.94 0.89 0.83 0.83 0.98 1.06 1.22 1.33 1.44 1.40 1.55 1.47 1.46 1.45 1.45 1.45 1.46 1.47 1.43 1.45 1.39 1.29 1.25 1.21 1.13 1.06
0.86 0.88 0.90 0.95 0.96 0.98 1.00 0.99 0.97 1.00 1.01 0.97 0.95 0.97 0.97 0.98 1.04 1.02 0.95 0.93 0.83 0.91 1.01 1.04 1.29 1.34 1.47 1.44 1.42 1.40 1.37 1.38 1.42 1.44 1.42 1.40 1.35 1.30 1.25 1.25 1.15 1.05 0.98
0.94 0.97 0.97 0.97 0.98 1.00 1.01 1.01 0.96 0.94 1.01 0.98 0.96 0.98 1.00 1.04 1.07 1.08 1.09 1.07 0.95 0.77 0.80 0.97 1.09 1.28 1.32 1.33 1.36 1.33 1.32 1.35 1.37 1.37 1.34 1.33 1.29 1.23 1.29 1.23 1.12 1.02 0.94
1.02 1.04 1.06 1.05 1.04 1.05 1.04 1.05 1.00 0.99 0.98 0.99 1.02 1.03 1.02 1.07 1.10 1.10 1.10 1.11 1.08 0.99 0.88 1.08 1.08 1.19 1.22 1.28 1.26 1.27 1.28 1.34 1.33 1.25 1.31 1.28 1.28 1.29 1.24 1.10 0.98 0.89 0.89
1.07 1.14 1.18 1.18 1.13 1.11 1.11 1.08 1.03 1.03 0.98 0.97 1.02 1.02 1.04 1.12 1.10 1.09 1.13 1.12 1.08 1.11 0.97 1.09 1.14 1.16 1.12 1.20 1.24 1.28 1.28 1.26 1.23 1.27 1.26 1.29 1.24 1.19 1.10 0.96 0.87 0.86 0.90
1.16 1.22 1.23 1.22 1.20 1.20 1.17 1.11 1.03 1.05 1.00 0.96 0.98 1.03 1.02 1.14 1.12 1.12 1.11 1.07 1.12 1.16 1.07 0.97 1.07 1.00 1.14 1.19 1.22 1.19 1.16 1.23 1.20 1.27 1.24 1.20 1.14 1.07 0.94 0.87 0.80 0.80 0.80
1.14 1.17 1.14 1.14 1.13 1.13 1.14 1.12 1.10 1.08 1.06 1.03 1.03 1.02 1.04 1.14 1.06 1.06 1.08 1.08 1.11 1.12 1.11 1.03 0.93 1.10 1.14 1.12 1.18 1.15 1.15 1.16 1.21 1.17 1.13 1.16 1.07 0.95 0.82 0.80 0.77 0.76 0.81
0.91 1.01 1.06 1.08 1.12 1.11 1.11 1.13 1.10 1.06 1.06 1.05 1.07 1.05 1.10 1.13 1.06 1.06 1.09 1.08 1.08 1.02 1.03 0.98 1.03 1.03 1.02 1.12 1.16 1.04 1.00 1.09 1.09 1.11 1.10 1.06 0.94 0.84 0.83 0.79 0.77 0.78 0.79
0.84 0.90 1.01 1.05 1.10 1.15 1.14 1.13 1.14 1.11 1.09 1.07 1.09 1.08 1.17 1.20 1.19 1.16 1.13 1.05 1.03 0.96 0.94 0.94 0.92 1.00 0.97 0.98 1.01 1.07 0.98 1.03 1.04 1.08 1.01 0.88 0.81 0.81 0.77 0.78 0.77 0.75 0.74
0.94 1.02 0.95 1.02 1.07 1.10 1.14 1.16 1.15 1.12 1.14 1.11 1.04 1.10 1.22 1.23 1.23 1.22 1.19 1.14 1.08 0.94 0.88 0.86 0.93 0.93 1.03 1.08 1.12 1.05 1.02 0.95 0.88 1.02 0.86 0.73 0.79 0.73 0.74 0.75 0.74 0.70 0.65
0.96 0.96 1.07 1.15 1.13 1.15 1.15 1.20 1.27 1.28 1.23 1.21 1.16 1.12 1.23 1.21 1.24 1.21 1.14 1.10 1.03 1.00 1.00 1.00 0.97 1.01 1.01 1.14 1.11 1.01 1.00 0.95 0.88 0.87 0.76 0.68 0.75 0.71 0.73 0.70 0.66 0.60 0.57
0.82 0.87 1.02 1.15 1.24 1.31 1.33 1.31 1.36 1.43 1.41 1.36 1.24 1.27 1.30 1.20 1.18 1.15 1.05 0.97 0.91 0.94 0.98 1.03 1.07 1.10 1.12 1.15 1.14 1.05 0.99 0.91 0.84 0.80 0.81 0.65 0.73 0.67 0.65 0.58 0.57 0.59 0.59
0.86 0.82 0.87 1.02 1.11 1.20 1.36 1.44 1.52 1.59 1.50 1.44 1.49 1.46 1.34 1.24 1.18 1.16 1.03 0.91 0.88 0.93 1.03 1.03 1.06 1.10 1.10 1.11 1.13 0.98 0.83 0.73 0.69 0.74 0.79 0.70 0.67 0.57 0.53 0.52 0.55 0.55 0.56
0.87 0.90 0.87 0.89 1.03 1.12 1.28 1.32 1.40 1.45 1.43 1.49 1.48 1.45 1.32 1.27 1.22 1.16 1.04 0.94 0.89 0.94 0.96 0.98 0.97 1.01 1.04 1.03 0.97 0.90 0.84 0.74 0.71 0.67 0.75 0.66 0.55 0.50 0.43 0.51 0.50 0.51 0.52

GFSMA_prec_pwat_240.txt.gz
Precipitable_Water
0.78 0.81 0.81 0.86 0.88 0.90 0.92 0.93 0.95 0.97 1.00 1.05 1.11 1.17 1.21 1.20 1.24 1.26 1.28 1.27 1.30 1.31 1.33 1.31 1.27 1.28 1.23 1.17 1.17 1.17 1.16 1.15 1.14 1.13 1.15 1.20 1.23 1.27 1.31 1.35 1.38 1.40 1.43
0.84 0.83 0.87 0.88 0.91 0.92 0.91 0.93 0.94 0.95 0.95 1.01 1.02 1.09 1.17 1.21 1.22 1.21 1.23 1.23 1.22 1.23 1.28 1.30 1.30 1.30 1.29 1.27 1.24 1.23 1.25 1.26 1.22 1.24 1.28 1.32 1.35 1.41 1.47 1.51 1.51 1.50 1.51
0.84 0.87 0.87 0.89 0.92 0.97 0.96 0.91 0.91 0.95 0.94 0.95 0.91 0.94 1.00 1.07 1.13 1.13 1.14 1.12 1.13 1.13 1.17 1.19 1.24 1.31 1.34 1.37 1.37 1.38 1.39 1.40 1.41 1.44 1.46 1.44 1.44 1.46 1.52 1.58 1.63 1.65 1.66
0.86 0.88 0.87 0.90 0.96 0.95 0.98 0.98 0.87 0.81 0.84 0.84 0.87 0.90 0.95 0.99 0.99 1.00 1.02 1.00 1.02 1.03 1.07 1.12 1.18 1.25 1.32 1.40 1.48 1.49 1.48 1.47 1.49 1.52 1.53 1.49 1.47 1.52 1.58 1.61 1.64 1.68 1.72
0.86 0.87 0.90 0.91 0.97 0.94 0.93 0.94 0.89 0.84 0.80 0.85 0.86 0.90 0.94 0.96 0.97 1.01 1.00 1.04 1.06 1.08 1.10 1.12 1.16 1.20 1.24 1.32 1.41 1.49 1.51 1.51 1.55 1.60 1.62 1.60 1.57 1.60 1.64 1.68 1.70 1.70 1.74
0.83 0.84 0.89 0.94 0.98 0.96 0.92 0.92 0.87 0.90 0.85 0.83 0.86 0.88 0.92 0.98 1.01 1.01 1.02 1.07 1.11 1.14 1.16 1.16 1.19 1.22 1.25 1.29 1.34 1.40 1.44 1.51 1.55 1.63 1.66 1.66 1.64 1.66 1.66 1.68 1.67 1.69 1.71
0.91 0.88 0.87 0.90 0.98 0.94 0.92 0.92 0.91 0.85 0.83 0.91 0.86 0.83 0.87 0.93 0.92 0.94 1.00 1.03 1.07 1.15 1.18 1.19 1.22 1.25 1.29 1.34 1.37 1.37 1.39 1.43 1.48 1.55 1.60 1.62 1.65 1.62 1.62 1.63 1.66 1.66 1.67
0.93 0.93 0.89 0.87 0.92 0.95 0.94 0.93 0.91 0.86 0.87 0.95 0.83 0.83 0.67 0.73 0.80 0.87 0.93 0.96 0.99 1.06 1.09 1.15 1.18 1.22 1.26 1.32 1.36 1.38 1.40 1.45 1.45 1.51 1.57 1.59 1.62 1.61 1.60 1.63 1.61 1.57 1.58
0.95 0.97 0.95 0.93 0.93 0.94 0.89 0.91 0.91 0.88 0.80 0.92 0.97 0.86 0.68 0.57 0.66 0.76 0.79 0.86 0.91 0.96 1.03 1.09 1.15 1.21 1.28 1.32 1.37 1.43 1.43 1.44 1.48 1.55 1.55 1.56 1.57 1.57 1.57 1.59 1.55 1.50 1.47
0.98 1.00 1.00 0.98 0.93 0.93 0.90 0.87 0.92 0.87 0.89 0.76 0.90 0.95 0.93 0.83 0.65 0.58 0.79 0.85 0.91 0.92 1.00 1.06 1.10 1.14 1.23 1.31 1.42 1.46 1.44 1.44 1.50 1.53 1.54 1.56 1.56 1.55 1.55 1.56 1.49 1.44 1.36
0.97 0.98 1.00 1.00 0.97 0.96 0.93 0.92 0.92 0.90 0.92 0.87 0.84 0.86 0.89 0.89 0.90 0.78 0.63 0.71 0.88 0.98 1.03 1.02 1.08 1.14 1.26 1.40 1.46 1.44 1.44 1.44 1.47 1.49 1.53 1.53 1.53 1.51 1.48 1.47 1.42 1.35 1.25
0.91 0.95 0.96 0.97 0.96 0.97 0.93 0.94 0.97 0.97 0.95 0.93 0.92 0.89 0.84 0.79 0.77 0.81 0.78 0.75 0.76 0.84 0.98 1.06 1.11 1.20 1.31 1.39 1.43 1.39 1.48 1.42 1.43 1.47 1.44 1.46 1.44 1.43 1.41 1.41 1.37 1.28 1.21
0.88 0.88 0.94 0.98 0.98 0.98 0.96 0.98 1.00 1.00 0.98 0.95 0.92 0.89 0.92 0.88 0.90 0.87 0.84 0.76 0.75 0.86 0.93 1.05 1.13 1.24 1.29 1.35 1.40 1.41 1.45 1.39 1.44 1.37 1.37 1.39 1.40 1.35 1.35 1.31 1.26 1.24 1.21
0.90 0.94 0.95 0.98 0.98 0.99 0.98 0.99 0.98 0.99 1.02 0.98 0.94 0.96 0.95 0.91 0.95 0.93 0.85 0.84 0.75 0.79 0.87 0.91 1.11 1.20 1.27 1.32 1.36 1.33 1.33 1.33 1.35 1.34 1.35 1.34 1.38 1.31 1.30 1.25 1.21 1.21 1.17
0.99 1.03 1.05 0.99 0.98 0.97 1.00 1.03 1.00 0.98 1.01 0.99 0.95 0.98 0.97 0.97 0.98 0.97 0.99 0.99 0.89 0.70 0.68 0.87 0.95 1.16 1.25 1.31 1.28 1.29 1.26 1.25 1.28 1.29 1.30 1.30 1.29 1.30 1.27 1.22 1.20 1.19 1.12
1.14 1.12 1.13 1.10 0.99 0.97 1.01 1.07 1.06 1.08 1.07 1.02 1.02 1.00 0.98 1.01 1.04 1.04 1.03 1.09 1.06 0.94 0.76 0.94 0.99 1.11 1.22 1.25 1.25 1.23 1.23 1.25 1.26 1.26 1.29 1.26 1.25 1.27 1.25 1.26 1.12 1.01 0.90
1.27 1.19 1.14 1.07 1.03 1.01 1.08 1.09 1.07 1.11 1.10 1.06 1.08 1.03 0.98 1.04 1.03 1.07 1.10 1.13 1.11 1.09 0.92 0.99 1.02 1.11 1.09 1.13 1.18 1.24 1.24 1.21 1.22 1.24 1.24 1.21 1.21 1.20 1.17 1.06 0.98 0.87 0.82
1.02 0.96 0.99 1.01 1.10 1.14 1.18 1.12 1.09 1.12 1.11 1.07 1.07 1.08 1.00 1.07 1.03 1.06 1.08 1.10 1.13 1.15 1.07 0.94 1.01 1.02 1.06 1.16 1.18 1.13 1.17 1.18 1.22 1.22 1.19 1.17 1.14 1.09 1.06 1.01 0.90 0.81 0.80
0.97 1.00 1.02 1.06 1.15 1.20 1.23 1.21 1.19 1.17 1.18 1.14 1.13 1.09 1.04 1.09 1.03 1.04 1.07 1.10 1.16 1.17 1.14 1.01 0.94 1.04 1.02 1.10 1.08 1.12 1.12 1.17 1.20 1.15 1.15 1.12 1.08 1.08 1.02 0.92 0.81 0.77 0.76
0.98 1.01 1.00 1.04 1.13 1.24 1.29 1.20 1.15 1.14 1.13 1.13 1.16 1.15 1.13 1.09 1.05 1.06 1.05 1.09 1.17 1.11 1.06 1.03 1.03 1.00 0.96 1.13 1.14 1.01 1.00 1.13 1.09 1.12 1.13 1.10 1.09 1.05 0.94 0.81 0.78 0.75 0.77
0.84 0.88 0.94 1.01 1.04 1.08 1.16 1.16 1.13 1.10 1.11 1.12 1.15 1.18 1.22 1.22 1.19 1.20 1.09 1.12 1.17 1.08 1.01 1.04 0.99 0.94 0.84 0.94 0.98 1.02 0.99 1.05 1.06 1.11 1.06 1.05 1.03 0.93 0.79 0.79 0.75 0.76 0.76
0.81 0.87 0.87 0.92 1.02 1.15 1.15 1.17 1.25 1.20 1.17 1.14 1.12 1.17 1.27 1.28 1.24 1.22 1.20 1.23 1.25 1.09 1.03 1.05 0.98 0.87 0.86 0.98 0.99 0.99 0.96 0.93 0.94 1.13 1.07 1.01 0.97 0.79 0.78 0.76 0.75 0.74 0.74
0.76 0.79 0.85 0.92 0.88 1.00 1.17 1.28 1.28 1.27 1.27 1.21 1.18 1.20 1.21 1.25 1.28 1.23 1.22 1.26 1.32 1.26 1.27 1.21 1.04 0.97 0.92 1.03 1.06 0.99 0.99 0.97 0.93 1.05 1.03 0.91 0.86 0.75 0.79 0.78 0.74 0.72 0.69
0.60 0.64 0.76 0.84 0.88 0.89 1.04 1.19 1.31 1.37 1.40 1.39 1.30 1.26 1.22 1.19 1.29 1.29 1.20 1.24 1.28 1.29 1.34 1.27 1.22 1.11 1.05 1.12 1.12 1.10 1.05 0.99 1.00 1.03 1.03 0.78 0.79 0.76 0.80 0.76 0.73 0.66 0.63
0.52 0.54 0.59 0.66 0.80 0.86 0.96 1.02 1.19 1.24 1.28 1.38 1.47 1.49 1.42 1.40 1.51 1.54 1.38 1.32 1.33 1.27 1.39 1.27 1.25 1.15 1.15 1.16 1.14 1.09 0.95 0.92 0.89 0.93 0.93 0.79 0.79 0.76 0.76 0.68 0.65 0.63 0.62
0.54 0.54 0.54 0.58 0.67 0.76 0.88 0.94 0.97 1.11 1.15 1.19 1.32 1.42 1.53 1.57 1.55 1.60 1.53 1.50 1.28 1.26 1.30 1.22 1.16 1.10 1.16 1.15 1.12 1.08 1.01 0.90 0.87 0.80 0.85 0.80 0.79 0.75 0.61 0.60 0.57 0.58 0.59

GFSMA_prec_pwat_243.txt.gz
Precipitable_Water
0.75 0.78 0.78 0.81 0.82 0.86 0.85 0.86 0.92 0.95 0.95 0.92 0.92 1.01 1.13 1.22 1.21 1.22 1.25 1.26 1.24 1.24 1.29 1.32 1.33 1.29 1.26 1.26 1.24 1.22 1.23 1.25 1.26 1.28 1.27 1.30 1.33 1.35 1.36 1.39 1.41 1.46 1.51
0.79 0.78 0.79 0.81 0.83 0.87 0.89 0.89 0.89 0.91 0.93 0.99 0.97 1.01 1.04 1.12 1.16 1.17 1.16 1.18 1.18 1.16 1.18 1.21 1.25 1.28 1.28 1.32 1.33 1.31 1.33 1.36 1.38 1.40 1.41 1.41 1.40 1.40 1.40 1.41 1.45 1.51 1.55
0.81 0.81 0.81 0.81 0.84 0.90 0.90 0.90 0.91 0.93 0.92 0.94 0.91 0.95 0.97 0.99 1.05 1.10 1.14 1.14 1.15 1.14 1.12 1.13 1.15 1.21 1.25 1.30 1.35 1.37 1.38 1.39 1.41 1.43 1.45 1.48 1.52 1.50 1.45 1.45 1.47 1.55 1.58
0.84 0.81 0.79 0.80 0.85 0.88 0.90 0.89 0.85 0.82 0.83 0.84 0.82 0.84 0.86 0.88 0.91 0.96 0.99 1.02 1.04 1.05 1.04 1.06 1.09 1.14 1.20 1.27 1.32 1.35 1.39 1.43 1.45 1.49 1.52 1.57 1.60 1.56 1.52 1.50 1.52 1.58 1.62
0.85 0.83 0.81 0.84 0.89 0.90 0.90 0.90 0.91 0.89 0.79 0.74 0.75 0.78 0.81 0.86 0.91 0.96 0.97 1.01 1.04 1.06 1.09 1.10 1.13 1.16 1.20 1.26 1.30 1.35 1.39 1.43 1.44 1.53 1.56 1.56 1.58 1.57 1.57 1.56 1.59 1.59 1.62
0.83 0.83 0.83 0.83 0.89 0.90 0.91 0.91 0.87 0.93 0.88 0.81 0.77 0.78 0.85 0.88 0.90 0.91 0.93 1.00 1.03 1.06 1.11 1.15 1.18 1.19 1.20 1.25 1.30 1.35 1.40 1.45 1.47 1.45 1.46 1.47 1.53 1.55 1.59 1.58 1.58 1.59 1.64
0.77 0.79 0.80 0.82 0.85 0.84 0.85 0.90 0.89 0.85 0.85 0.90 0.83 0.80 0.82 0.88 0.87 0.88 0.93 0.96 0.98 1.05 1.09 1.12 1.16 1.20 1.21 1.23 1.27 1.33 1.38 1.40 1.42 1.41 1.42 1.46 1.51 1.57 1.60 1.59 1.59 1.58 1.59
0.73 0.74 0.75 0.77 0.81 0.82 0.85 0.88 0.89 0.86 0.87 0.94 0.81 0.81 0.66 0.72 0.81 0.85 0.88 0.87 0.88 0.97 0.99 1.05 1.09 1.12 1.17 1.21 1.24 1.26 1.31 1.36 1.41 1.42 1.44 1.49 1.53 1.55 1.57 1.57 1.56 1.55 1.53
0.79 0.80 0.81 0.81 0.81 0.84 0.82 0.86 0.90 0.89 0.82 0.93 0.98 0.88 0.69 0.57 0.67 0.77 0.79 0.83 0.85 0.89 0.94 1.00 1.04 1.08 1.11 1.14 1.20 1.26 1.30 1.35 1.42 1.42 1.44 1.48 1.49 1.52 1.53 1.52 1.51 1.49 1.48
0.84 0.85 0.88 0.90 0.90 0.91 0.85 0.85 0.91 0.90 0.92 0.80 0.93 0.97 0.96 0.85 0.65 0.55 0.73 0.83 0.92 0.88 0.90 0.96 1.00 1.04 1.08 1.10 1.13 1.20 1.28 1.38 1.40 1.40 1.41 1.45 1.47 1.47 1.52 1.49 1.46 1.44 1.43
0.84 0.87 0.90 0.92 0.90 0.92 0.92 0.91 0.89 0.88 0.91 0.90 0.86 0.88 0.91 0.92 0.91 0.78 0.63 0.68 0.84 0.92 0.97 0.97 1.00 1.02 1.04 1.09 1.14 1.23 1.31 1.37 1.36 1.40 1.42 1.42 1.50 1.40 1.42 1.44 1.42 1.41 1.37
0.80 0.86 0.90 0.92 0.94 0.94 0.92 0.94 0.97 0.95 0.94 0.96 0.97 0.94 0.88 0.82 0.79 0.81 0.77 0.71 0.75 0.81 0.94 1.00 0.98 1.00 1.06 1.13 1.21 1.25 1.29 1.33 1.33 1.38 1.38 1.34 1.33 1.33 1.36 1.39 1.35 1.32 1.27
0.82 0.79 0.84 0.86 0.89 0.90 0.94 0.97 0.99 1.00 0.97 0.95 0.96 0.96 1.00 0.94 0.95 0.94 0.88 0.78 0.77 0.82 0.85 0.95 1.01 1.05 1.10 1.17 1.23 1.26 1.24 1.29 1.30 1.31 1.25 1.31 1.32 1.31 1.35 1.36 1.31 1.25 1.21
0.94 1.01 1.00 1.02 1.00 1.02 1.02 1.03 1.01 0.99 0.99 0.95 0.92 0.96 1.00 1.00 1.01 1.01 0.93 0.90 0.76 0.78 0.82 0.82 1.03 1.09 1.15 1.21 1.25 1.27 1.24 1.30 1.31 1.24 1.27 1.30 1.31 1.33 1.32 1.25 1.25 1.19 1.19
1.06 1.06 1.08 1.06 1.06 1.09 1.09 1.05 1.00 0.95 0.98 0.98 0.96 0.97 0.99 1.00 1.03 1.02 1.03 1.02 0.92 0.72 0.67 0.79 0.88 1.10 1.17 1.22 1.23 1.26 1.29 1.28 1.26 1.22 1.25 1.29 1.29 1.27 1.24 1.21 1.18 1.18 1.18
1.28 1.22 1.15 1.15 1.15 1.17 1.17 1.15 1.10 1.07 1.02 1.02 1.03 1.01 0.99 1.00 1.03 1.05 1.03 1.05 1.04 0.94 0.80 0.89 0.96 1.09 1.19 1.21 1.23 1.26 1.30 1.26 1.25 1.19 1.23 1.29 1.27 1.22 1.15 1.14 1.13 1.13 1.03
1.56 1.37 1.25 1.24 1.25 1.24 1.28 1.21 1.12 1.09 1.03 1.03 1.10 1.08 1.05 1.09 1.07 1.09 1.10 1.06 1.00 1.02 0.91 0.91 1.05 1.14 1.14 1.14 1.16 1.20 1.19 1.21 1.23 1.20 1.20 1.23 1.24 1.23 1.16 1.14 1.07 0.99 0.93
1.84 1.51 1.32 1.24 1.17 1.12 1.09 1.04 1.00 1.01 1.00 1.03 1.11 1.14 1.11 1.16 1.13 1.19 1.16 1.08 1.06 1.07 1.00 0.90 1.05 1.06 1.11 1.15 1.16 1.09 1.14 1.20 1.19 1.17 1.18 1.18 1.17 1.18 1.13 1.08 1.02 0.96 0.87
1.42 1.23 1.18 1.11 1.10 1.09 1.08 1.09 1.14 1.14 1.05 1.09 1.16 1.19 1.22 1.24 1.18 1.19 1.20 1.17 1.16 1.14 1.10 1.04 1.02 1.10 1.14 1.15 1.09 1.07 1.10 1.10 1.17 1.16 1.14 1.14 1.10 1.12 1.07 1.06 1.02 0.90 0.80
1.03 1.05 1.11 1.14 1.12 1.12 1.14 1.11 1.16 1.21 1.21 1.25 1.31 1.27 1.23 1.23 1.21 1.21 1.20 1.18 1.21 1.15 1.12 1.05 1.05 1.03 1.11 1.14 1.07 0.99 1.01 1.06 1.08 1.12 1.10 1.10 1.08 1.11 1.08 1.06 0.98 0.87 0.80
0.88 0.96 0.96 0.96 1.01 1.12 1.18 1.23 1.20 1.14 1.09 1.09 1.18 1.23 1.25 1.23 1.24 1.29 1.25 1.20 1.22 1.18 1.11 1.04 0.98 1.03 1.04 1.00 0.91 1.05 1.03 0.99 1.06 1.08 1.04 1.04 1.07 1.08 1.05 1.01 0.91 0.84 0.81
0.76 0.77 0.79 0.88 0.92 0.99 0.99 1.01 1.06 1.11 1.15 1.10 1.08 1.14 1.21 1.25 1.22 1.22 1.23 1.23 1.27 1.23 1.12 1.02 0.98 0.98 1.03 1.02 1.04 1.11 1.06 0.92 0.85 1.05 1.01 1.00 1.06 1.03 1.03 0.96 0.88 0.84 0.82
0.81 0.76 0.73 0.72 0.71 0.81 0.93 0.98 0.96 0.94 1.01 1.09 1.12 1.16 1.18 1.22 1.26 1.24 1.24 1.28 1.30 1.30 1.34 1.16 1.08 1.02 1.11 1.07 1.13 1.17 1.08 0.96 1.01 1.06 1.04 0.96 1.02 1.00 1.04 0.89 0.84 0.85 0.83
0.77 0.75 0.73 0.72 0.69 0.68 0.72 0.79 0.91 0.95 0.93 0.99 1.05 1.10 1.24 1.27 1.29 1.29 1.30 1.29 1.30 1.33 1.27 1.35 1.29 1.19 1.30 1.27 1.36 1.24 1.18 1.07 1.05 1.06 1.07 0.89 0.99 0.95 0.94 0.87 0.87 0.85 0.81
0.69 0.68 0.68 0.64 0.62 0.60 0.66 0.67 0.75 0.81 0.78 0.81 0.87 1.03 1.16 1.20 1.31 1.35 1.37 1.31 1.34 1.35 1.46 1.52 1.54 1.42 1.51 1.43 1.52 1.27 1.09 0.94 0.90 0.93 1.01 0.93 0.95 0.88 0.86 0.84 0.86 0.84 0.80
0.63 0.66 0.64 0.65 0.59 0.57 0.61 0.63 0.66 0.66 0.63 0.67 0.75 0.78 0.84 1.06 1.16 1.23 1.29 1.33 1.22 1.35 1.45 1.53 1.58 1.56 1.56 1.46 1.49 1.31 1.15 0.99 0.95 0.87 0.97 0.93 0.89 0.84 0.80 0.84 0.83 0.82 0.73